Regional Weather Roundup
Issued by NWS

Home | Current Version | Previous Version | Graphics & Text | Print | Product List | Glossary On
Versions: 1 2 3 4 5 6 7 8 9 10 11 12 13 14 15 16 17 18 19 20 21 22 23 24 25 26 27 28 29 30 31 32 33 34 35 36 37 38 39 40 41 42 43 44 45 46 47 48 49 50
000
ASUS43 KBIS 230731
RWRND
NORTH DAKOTA REGIONAL WEATHER ROUNDUP
NATIONAL WEATHER SERVICE EASTERN NORTH DAKOTA/GRAND FORKS ND
200 AM CDT WED MAY 23 2018

  NOTE: "FAIR" INDICATES FEW OR NO CLOUDS BELOW 12,000 FEET WITH NO
  SIGNIFICANT WEATHER AND/OR OBSTRUCTIONS TO VISIBILITY.

NDZ001>003-009>011-017-230800-
...NORTHWEST NORTH DAKOTA...

CITY           SKY/WX    TMP DP  RH WIND       PRES   REMARKS
WILLISTON      FAIR      59  56  89 NE5       29.94F
MINOT          FAIR      61  53  75 E6        29.94S
MINOT AFB      FAIR      56  50  81 CALM      29.93S
$$

NDZ018>021-031>035-040>046-230800-
...SOUTHWEST NORTH DAKOTA...

CITY           SKY/WX    TMP DP  RH WIND       PRES   REMARKS
BISMARCK       CLOUDY    64  57  78 E13       29.93F
DICKINSON      FAIR      60  54  80 E10       29.93F
GARRISON         N/A     62  53  72 SE5       29.93F
HETTINGER      CLOUDY    63  51  65 N16       29.95S
$$

NDZ004>008-012>016-024-026-027-054-230800-
...NORTHEAST NORTH DAKOTA...

CITY           SKY/WX    TMP DP  RH WIND       PRES   REMARKS
GRAND FORKS    FAIR      65  56  72 S8        29.99R
GRAND FORKS AF FAIR      64  56  73 S7        29.99R
DEVILS LAKE    FAIR      63  56  78 SE6       30.00S
$$

NDZ022-023-025-028>030-036>039-047>053-230800-
...SOUTHEAST NORTH DAKOTA...

CITY           SKY/WX    TMP DP  RH WIND       PRES   REMARKS
JAMESTOWN      CLOUDY    63  56  78 SW5       29.97R
FARGO          FAIR      67  56  67 SE12      29.98F
WAHPETON       FAIR      64  52  63 SE10      29.99F
$$



USA.gov is the U.S. government's official web portal to all federal, state and local government web resources and services.